VU3ZAG-WX Weather Reports


time (UTC)temp
C
wind
direction
speed
KPH
gust
KPH
rain 1hr
cm
rain 24hr
cm
rain mn
cm
humidity
%
barometer
mb
20260504090125 38 0.0 0.0 0.00 0.00 0.00 49 1007.4
20260504081054 38 0.0 0.0 0.00 0.00 0.00 49 1008.0
20260504045857 37 0.0 0.0 0.00 0.00 0.00 50 1009.8
20260504044837 37 0.0 0.0 0.00 0.00 0.00 49 1009.8
20260504043832 37 0.0 0.0 0.00 0.00 0.00 49 1009.9
20260504042826 37 0.0 0.0 0.00 0.00 0.00 49 1009.9
20260504041822 37 0.0 0.0 0.00 0.00 0.00 48 1009.9
20260504040816 37 0.0 0.0 0.00 0.00 0.00 50 1009.9
20260504035809 37 0.0 0.0 0.00 0.00 0.00 53 1009.9
20260504034802 37 0.0 0.0 0.00 0.00 0.00 49 1009.9
20260504033754 37 0.0 0.0 0.00 0.00 0.00 48 1009.8
20260504032749 36 0.0 0.0 0.00 0.00 0.00 49 1009.8
20260504031742 36 0.0 0.0 0.00 0.00 0.00 51 1009.7
20260504030735 35 0.0 0.0 0.00 0.00 0.00 54 1009.6
20260504025729 35 0.0 0.0 0.00 0.00 0.00 56 1009.5
20260504024721 35 0.0 0.0 0.00 0.00 0.00 55 1009.3
20260504023715 35 0.0 0.0 0.00 0.00 0.00 54 1009.2
20260504022710 35 0.0 0.0 0.00 0.00 0.00 57 1009.1
20260504021704 35 0.0 0.0 0.00 0.00 0.00 56 1008.9
20260504020659 34 0.0 0.0 0.00 0.00 0.00 54 1008.8
20260504015654 34 0.0 0.0 0.00 0.00 0.00 57 1008.6
20260504014648 33 0.0 0.0 0.00 0.00 0.00 60 1008.5
20260504013643 33 0.0 0.0 0.00 0.00 0.00 58 1008.4
20260504012638 33 0.0 0.0 0.00 0.00 0.00 60 1008.3
20260504011633 33 0.0 0.0 0.00 0.00 0.00 61 1008.2
20260504010628 33 0.0 0.0 0.00 0.00 0.00 59 1008.1
20260504005623 33 0.0 0.0 0.00 0.00 0.00 61 1008.0
20260504004618 32 0.0 0.0 0.00 0.00 0.00 64 1007.9
20260504003612 33 0.0 0.0 0.00 0.00 0.00 61 1007.8
20260504002607 33 0.0 0.0 0.00 0.00 0.00 61 1007.8
20260504001602 32 0.0 0.0 0.00 0.00 0.00 62 1007.7
20260504000556 32 0.0 0.0 0.00 0.00 0.00 62 1007.7
20260503235551 32 0.0 0.0 0.00 0.00 0.00 66 1007.6
20260503234545 32 0.0 0.0 0.00 0.00 0.00 65 1007.6
20260503233539 32 0.0 0.0 0.00 0.00 0.00 61 1007.6
20260503232534 32 0.0 0.0 0.00 0.00 0.00 63 1007.6
20260503231529 32 0.0 0.0 0.00 0.00 0.00 65 1007.6
20260503230524 32 0.0 0.0 0.00 0.00 0.00 66 1007.6
20260503225517 32 0.0 0.0 0.00 0.00 0.00 64 1007.6
20260503224512 32 0.0 0.0 0.00 0.00 0.00 66 1007.6
20260503223505 33 0.0 0.0 0.00 0.00 0.00 62 1007.7
20260503222459 33 0.0 0.0 0.00 0.00 0.00 62 1007.7
20260503221454 33 0.0 0.0 0.00 0.00 0.00 60 1007.7
20260503220448 33 0.0 0.0 0.00 0.00 0.00 63 1007.8
20260503215443 33 0.0 0.0 0.00 0.00 0.00 64 1007.8
20260503214435 33 0.0 0.0 0.00 0.00 0.00 63 1007.9
20260503213430 33 0.0 0.0 0.00 0.00 0.00 64 1008.0
20260503212425 33 0.0 0.0 0.00 0.00 0.00 59 1008.1
20260503211418 33 0.0 0.0 0.00 0.00 0.00 61 1008.2
20260503210412 34 0.0 0.0 0.00 0.00 0.00 63 1008.3
20260503205406 34 0.0 0.0 0.00 0.00 0.00 59 1008.5
20260503204401 35 0.0 0.0 0.00 0.00 0.00 57 1008.6
20260503203356 34 0.0 0.0 0.00 0.00 0.00 55 1008.8
20260503202350 34 0.0 0.0 0.00 0.00 0.00 56 1008.9
20260503201344 34 0.0 0.0 0.00 0.00 0.00 52 1009.0
20260503200338 33 0.0 0.0 0.00 0.00 0.00 56 1009.1
20260503195332 33 0.0 0.0 0.00 0.00 0.00 59 1009.3
20260503194327 33 0.0 0.0 0.00 0.00 0.00 59 1009.4
20260503193321 33 0.0 0.0 0.00 0.00 0.00 59 1009.6
20260503192316 33 0.0 0.0 0.00 0.00 0.00 59 1009.7
20260503191310 33 0.0 0.0 0.00 0.00 0.00 55 1009.8
20260503190304 33 0.0 0.0 0.00 0.00 0.00 56 1009.8
20260503185259 33 0.0 0.0 0.00 0.00 0.00 59 1009.8
20260503184253 33 0.0 0.0 0.00 0.00 0.00 59 1009.9
20260503183248 33 0.0 0.0 0.00 0.00 0.00 59 1009.9
20260503182242 33 0.0 0.0 0.00 0.00 0.00 58 1009.9
20260503181235 33 0.0 0.0 0.00 0.00 0.00 57 1009.9
20260503180230 33 0.0 0.0 0.00 0.00 0.00 59 1009.9
20260503175224 33 0.0 0.0 0.00 0.00 0.00 58 1009.9
20260503174217 33 0.0 0.0 0.00 0.00 0.00 58 1009.8
20260503173211 33 0.0 0.0 0.00 0.00 0.00 59 1009.8
20260503172206 33 0.0 0.0 0.00 0.00 0.00 60 1009.8
20260503171159 33 0.0 0.0 0.00 0.00 0.00 58 1009.8
20260503170153 34 0.0 0.0 0.00 0.00 0.00 58 1009.8
20260503160119 34 0.0 0.0 0.00 0.00 0.00 57 1009.5
20260503130944 35 0.0 0.0 0.00 0.00 0.00 58 1007.5